weather.gov     
National Weather Service

Terminal Aerodrome Forecast
NWS Homepage
This page is being discontinued on March 12, 2014.
The same data is available at this site. Please update your bookmarks.
Thank you, and we apologize for the inconvenience.
Please send an email to SR-SRH.Webmaster@noaa.gov with any concerns.


Current Version
Previous Version:    01  02  03  04  05  06  07  08  09  10  11  12  13  14  15  16  17  18  19  20  21  22  23  24  25  26  27  
[Printable]
017
FTUS43 KDTX 242300
TAFMBS
TAF
KMBS 242335Z 2500/2524 13010G18KT P6SM SCT080 BKN110
     FM250100 11009KT P6SM BKN080
     FM251300 09007KT 5SM -RA BKN050 OVC100
     FM251500 07008KT 5SM -RA BKN020 OVC030
     FM251800 32012KT P6SM SCT025 BKN035=


U.S. Dept. of Commerce
NOAA National Weather Service
1325 East West Highway
Silver Spring, MD 20910
E-mail: w-nws.webmaster@noaa.gov
Page last modified: May 16, 2007
NATIONAL WEATHER SERVICE: for Safety, for Work, for Fun - FOR LIFE